Lapse_Rate
6.6 6.7 6.8 6.9 6.9 6.9 6.8 6.8 6.8 6.8 6.7 6.8 6.8 6.8 6.8 6.9 7.0 7.0 7.1 7.1 7.1 7.2 7.2 7.4 7.4 7.4 7.4 7.2 7.1 6.9 6.8 6.6 6.5 6.5 6.4 6.3 6.3 6.2 6.0 5.8 5.8 5.9 6.0 5.8 5.8 6.1 6.4
6.6 6.7 6.7 6.7 6.7 6.7 6.7 6.6 6.6 6.7 6.7 6.7 6.7 6.7 6.7 6.8 6.9 6.9 7.0 7.1 7.1 7.2 7.3 7.3 7.4 7.4 7.4 7.3 7.2 7.1 7.0 7.0 6.8 6.7 6.5 6.4 6.3 6.4 6.4 6.1 5.9 5.8 6.0 6.0 6.1 6.2 6.4
6.7 6.7 6.7 6.6 6.5 6.5 6.6 6.6 6.7 6.7 6.7 6.6 6.7 6.6 6.6 6.7 6.8 6.9 7.0 7.1 7.1 7.2 7.3 7.3 7.3 7.4 7.5 7.4 7.3 7.2 7.1 7.0 6.9 6.8 6.7 6.6 6.5 6.4 6.4 6.3 6.2 6.1 6.5 6.2 6.3 6.2 6.2
6.6 6.6 6.5 6.6 6.6 6.6 6.6 6.6 6.7 6.7 6.7 6.8 6.8 6.8 6.7 6.7 6.9 7.0 7.1 7.3 7.3 7.3 7.3 7.4 7.4 7.4 7.6 7.6 7.5 7.4 7.2 7.2 7.0 7.0 6.9 6.9 6.8 6.7 6.5 6.5 6.5 6.4 6.3 6.0 6.1 6.2 6.0
6.5 6.5 6.5 6.5 6.5 6.5 6.5 6.6 6.7 6.7 6.8 6.9 6.9 6.9 7.0 7.1 7.2 7.1 7.3 7.2 7.1 7.3 7.3 7.4 7.4 7.5 7.6 7.6 7.5 7.4 7.3 7.2 7.2 7.2 7.2 7.1 7.0 6.8 6.7 6.5 6.4 6.5 6.0 6.1 6.5 6.4 6.1
6.5 6.5 6.6 6.6 6.5 6.6 6.6 6.6 6.7 6.9 6.9 6.8 6.9 7.0 7.0 7.0 7.2 7.2 7.0 7.1 7.2 7.2 7.3 7.4 7.5 7.4 7.5 7.4 7.4 7.4 7.4 7.3 7.3 7.3 7.3 7.3 7.1 6.9 6.9 6.6 6.5 6.3 5.9 6.1 6.0 6.3 6.6
6.5 6.5 6.5 6.5 6.5 6.6 6.7 6.7 6.8 6.7 6.7 6.8 6.8 6.8 6.9 6.9 7.0 6.9 6.9 6.7 6.8 6.9 7.4 7.3 7.2 7.4 7.6 7.5 7.4 7.4 7.4 7.4 7.5 7.4 7.3 7.4 7.2 7.2 6.9 6.8 6.7 6.6 6.5 6.0 7.0 6.5 6.5
6.5 6.5 6.5 6.6 6.7 6.6 6.3 6.4 6.4 6.4 6.5 6.6 6.6 6.7 6.7 6.6 6.8 6.7 6.8 6.8 6.5 6.0 6.3 7.4 7.4 7.6 7.5 7.4 7.4 7.4 7.5 7.5 7.7 7.6 7.4 7.4 7.8 7.5 7.3 7.1 6.9 6.9 6.5 6.6 7.0 6.6 6.3
6.2 6.3 6.3 6.3 6.2 6.2 6.2 6.2 6.2 6.2 6.3 6.4 6.4 6.5 6.5 6.5 6.5 6.5 6.6 6.5 6.3 6.0 5.7 6.8 7.4 7.2 7.1 7.3 7.3 7.4 7.4 7.5 7.7 7.8 7.6 7.5 7.7 7.9 7.6 7.3 7.0 6.9 6.6 6.5 6.3 6.6 6.3
5.9 6.0 6.1 6.2 6.2 6.0 6.0 6.0 6.1 6.2 6.3 6.4 6.4 6.5 6.7 6.7 6.6 6.6 6.5 6.4 6.3 6.0 5.7 6.7 7.1 7.3 7.3 7.2 7.3 7.7 7.6 7.4 7.6 7.5 7.5 7.5 7.8 7.6 7.4 7.5 7.0 6.8 7.1 6.6 6.7 5.8 6.4
5.9 5.9 5.8 5.7 5.7 5.9 6.0 6.0 6.1 6.1 6.2 6.3 6.4 6.7 6.9 7.0 6.9 7.0 6.8 6.6 6.3 6.0 5.7 6.7 7.0 7.2 7.2 7.2 7.2 7.5 7.4 7.3 7.5 7.4 7.2 7.4 7.4 7.4 7.5 7.5 7.3 7.1 7.1 6.7 6.6 6.0 5.7
5.6 5.6 5.7 5.7 5.6 5.6 5.6 5.7 5.9 6.0 6.0 6.3 6.4 6.6 6.7 6.7 6.8 6.7 6.8 6.8 6.7 6.3 6.2 6.8 6.9 6.9 7.0 7.1 7.1 7.0 7.0 7.0 7.2 7.1 7.0 7.3 7.2 7.3 7.5 7.3 7.3 7.2 6.9 6.8 6.6 6.2 6.5
5.4 5.4 5.4 5.3 5.3 5.4 5.5 5.6 5.7 5.9 6.0 6.1 6.3 6.5 6.6 6.6 6.6 6.6 6.7 6.6 6.3 6.2 7.0 6.4 6.7 6.7 6.8 6.9 7.1 7.2 7.1 7.3 7.2 6.7 6.7 6.9 7.5 7.5 7.4 7.3 7.3 7.2 6.7 7.2 7.0 6.6 7.8
5.4 5.2 5.3 5.4 5.4 5.5 5.6 5.5 5.3 5.4 5.8 5.8 5.9 5.9 6.0 6.1 6.2 6.4 6.4 6.3 5.8 6.1 6.8 6.7 6.6 6.8 6.7 6.8 6.9 6.9 7.0 7.1 7.0 6.9 6.4 6.4 6.9 7.3 7.4 7.4 7.0 7.0 6.7 7.3 7.0 7.3 7.3
5.0 5.2 5.2 5.2 5.1 5.1 5.0 5.1 5.2 5.3 5.5 5.5 5.4 5.3 5.4 5.5 5.8 5.9 6.0 5.8 5.8 5.7 6.0 6.2 6.8 6.5 6.5 6.5 6.7 6.8 6.9 6.9 6.7 6.7 6.4 6.6 6.8 6.8 6.9 6.9 6.8 6.8 6.5 6.8 6.4 5.8 6.0
5.0 5.0 5.1 4.8 4.8 4.7 4.7 4.9 5.1 5.2 5.1 5.1 5.0 5.1 5.1 5.2 5.5 5.7 5.9 5.8 5.6 5.9 6.0 5.6 5.8 6.4 6.5 6.5 6.6 6.6 6.7 6.4 6.7 6.4 6.3 6.2 5.9 6.4 6.7 6.7 6.8 6.6 6.6 6.4 6.3 6.5 6.5
4.8 4.8 4.6 4.6 4.5 4.5 4.7 4.9 4.9 4.9 4.9 5.0 4.9 5.0 5.0 5.0 5.2 5.5 5.6 5.4 5.6 5.6 5.8 5.8 5.9 6.0 6.2 6.0 6.1 6.2 6.5 6.2 6.3 6.3 6.2 6.0 5.6 5.9 6.2 6.4 6.6 6.6 6.1 6.4 6.4 6.3 7.1
4.6 4.5 4.4 4.4 4.4 4.5 4.6 4.5 4.6 4.7 4.9 4.9 5.1 5.0 4.9 4.8 4.9 5.0 5.2 5.3 5.5 5.9 6.0 5.8 5.8 5.7 5.7 5.7 5.8 6.0 6.3 6.4 6.3 6.4 6.1 5.9 5.4 5.1 5.9 6.2 6.2 6.0 6.1 6.4 6.7 7.0 6.3
4.3 4.1 4.0 4.2 4.4 4.3 4.3 4.4 4.4 4.3 4.4 4.5 4.7 4.8 4.7 4.9 4.9 5.0 5.3 5.3 5.5 5.5 5.9 5.8 5.7 5.6 5.6 5.6 5.6 5.6 5.7 6.0 6.1 6.0 5.8 5.5 5.0 5.4 6.2 6.3 6.1 5.8 5.9 5.9 6.1 6.1 6.2
3.9 3.7 3.7 4.1 4.3 4.3 4.5 4.4 4.3 4.2 4.2 4.2 4.5 4.6 4.7 4.7 4.9 5.3 5.5 5.6 5.4 5.3 5.4 5.4 5.3 5.3 5.2 5.4 5.4 5.1 5.3 5.6 5.9 5.8 5.9 5.5 5.0 5.2 5.8 6.4 5.9 5.5 5.8 5.7 5.6 5.6 6.1
3.6 3.6 3.7 4.1 4.1 4.3 4.4 4.3 4.1 4.2 4.2 4.4 4.3 4.2 4.3 4.6 5.0 5.2 5.4 5.4 5.5 5.3 4.9 5.0 4.8 4.8 4.7 4.7 4.7 4.6 4.8 5.3 6.2 6.1 6.0 5.2 4.3 4.7 4.7 4.8 4.9 4.8 5.1 5.4 5.4 5.5 5.7
3.6 3.7 3.8 3.9 4.0 4.3 4.2 4.0 4.3 4.1 4.2 4.3 4.5 4.4 4.3 4.7 5.1 5.2 5.0 5.0 5.2 5.3 5.0 4.7 4.6 4.8 4.5 4.1 4.0 4.1 4.2 4.6 3.9 5.3 5.2 5.1 4.3 4.6 4.3 5.0 4.6 4.4 4.9 5.1 5.2 5.5 5.5
3.7 3.6 3.7 3.8 4.0 4.1 4.1 4.1 4.2 4.4 4.4 4.3 4.2 4.4 4.6 5.0 5.2 5.1 5.0 4.9 4.7 4.7 4.8 4.6 4.1 4.2 4.4 4.4 3.9 4.0 4.3 4.7 4.4 4.0 4.2 3.0 3.8 3.7 4.2 4.3 4.5 4.8 5.3 5.2 5.2 5.4 5.3
3.5 3.7 3.7 3.8 4.0 4.0 4.1 4.1 4.2 4.3 4.6 4.5 4.1 4.1 4.7 5.0 5.2 5.3 5.0 5.1 4.7 4.4 4.4 4.9 4.2 3.8 3.9 3.9 4.1 4.5 4.7 4.6 4.4 4.4 3.9 3.7 3.2 3.4 3.6 4.1 5.0 5.6 5.4 5.2 5.1 5.3 4.9
3.7 3.7 3.7 3.8 4.1 4.1 4.1 4.1 4.2 4.3 4.3 4.1 3.8 4.3 4.8 4.9 5.1 5.0 5.2 5.0 4.8 4.8 4.6 4.5 4.5 4.0 3.7 4.0 3.3 3.6 4.1 4.3 4.5 4.5 4.4 4.4 4.1 4.2 4.6 5.2 4.7 4.6 6.2 5.7 5.4 5.1 5.1
3.9 3.8 3.8 3.8 4.1 4.1 4.1 4.2 4.2 4.2 4.2 4.0 4.2 4.7 4.6 4.3 4.2 4.3 5.0 4.9 4.7 4.4 4.3 4.9 4.8 4.5 4.1 3.8 3.3 3.4 4.2 3.9 4.3 4.7 5.1 5.2 4.8 5.0 5.4 5.4 5.4 5.2 5.8 6.1 5.4 6.0 5.6
3.8 3.9 4.0 4.1 4.1 4.1 4.2 4.4 4.3 4.4 4.6 4.0 4.5 4.4 4.0 3.8 3.8 3.7 4.2 4.5 4.1 3.9 3.5 3.8 3.8 4.2 4.4 4.0 4.0 4.5 4.6 4.5 4.6 4.9 5.4 5.2 5.5 5.5 5.4 5.7 5.3 5.1 5.7 5.8 6.4 6.8 6.2
4.0 4.1 4.2 4.2 4.3 4.4 4.3 4.4 4.7 4.9 4.7 4.2 4.2 4.2 4.0 4.0 4.1 4.3 4.2 4.8 4.2 4.6 4.3 3.9 3.6 4.1 4.2 4.3 4.1 4.6 4.3 4.6 4.7 5.2 5.6 5.9 6.1 6.1 5.8 5.5 5.3 5.8 5.8 5.6 6.0 6.4 6.3
4.2 4.4 4.5 4.5 4.4 4.4 4.6 4.8 4.8 4.7 4.0 3.9 4.1 4.3 4.5 4.5 4.7 4.6 5.2 5.0 4.8 4.8 4.6 4.6 4.9 5.3 4.9 4.8 4.9 5.0 5.2 5.3 5.7 5.2 6.7 6.1 6.8 6.4 6.8 6.1 6.4 6.2 6.4 6.0 5.8 5.5 5.4
Wind_Speed
16 15 16 17 17 18 19 19 19 19 19 20 21 22 22 22 22 22 21 19 17 15 12 10 8 8 3 4 6 8 9 7 4 3 2 1 1 2 3 4 5 12 11 9 15 17 20
14 15 16 17 18 18 19 19 20 20 20 21 21 21 22 22 22 22 22 21 19 15 11 8 5 4 3 6 3 10 10 6 4 3 3 0 1 1 4 4 5 5 12 19 16 15 12
15 18 18 18 18 19 19 19 20 21 21 22 22 23 23 24 24 23 22 21 21 16 9 7 4 3 4 10 1 7 7 3 4 3 2 2 2 2 2 5 5 9 12 13 7 4 9
19 18 17 17 18 19 21 21 22 22 23 24 24 25 25 24 25 25 24 23 17 8 5 5 5 3 6 2 4 6 6 4 3 2 1 3 3 3 4 5 5 5 5 7 0 7 3
17 17 17 18 18 19 21 22 23 23 23 24 25 25 26 27 27 26 25 22 6 4 3 9 5 3 5 5 4 7 7 4 5 3 2 3 2 3 3 5 6 4 8 11 9 4 7
16 16 17 17 19 20 21 22 24 25 25 26 26 27 27 27 27 27 28 12 3 3 5 3 1 3 3 3 4 4 4 7 2 5 3 4 3 4 6 5 5 5 10 7 12 5 12
15 16 17 19 19 20 22 23 24 25 26 27 27 27 28 28 27 25 14 1 2 3 4 8 9 6 2 4 4 3 3 6 4 3 4 3 5 10 12 8 10 10 11 15 17 13 11
16 17 18 19 21 22 23 25 26 27 28 29 30 29 29 29 26 25 3 1 3 2 10 10 12 7 4 2 3 6 8 7 5 6 4 4 11 9 3 3 7 10 13 15 11 1 10
16 17 19 20 22 23 25 26 27 28 30 31 33 31 29 27 25 4 2 3 2 1 5 5 3 2 1 9 5 6 12 5 7 6 10 10 1 4 5 6 9 12 14 14 10 15 9
17 18 20 21 23 24 26 27 28 29 31 34 34 33 29 23 3 3 2 5 1 1 4 3 1 2 3 1 4 1 8 2 4 5 5 10 0 5 6 9 8 12 3 8 10 12 6
17 18 20 21 23 25 26 28 30 32 34 34 35 27 21 7 4 2 5 8 3 2 5 3 2 1 2 2 3 3 2 3 7 4 4 3 4 6 8 6 9 3 1 9 10 10 7
17 19 20 22 24 26 27 30 32 33 35 36 31 25 13 3 1 4 9 6 2 2 7 2 2 3 3 2 2 3 3 3 1 4 8 18 3 4 4 2 9 4 9 7 3 2 3
17 18 20 22 25 27 29 31 33 34 36 37 27 13 7 3 5 13 9 2 2 4 6 6 4 5 4 3 2 3 3 5 5 4 4 4 4 2 4 4 3 5 6 3 3 2 3
17 18 21 23 26 28 30 32 35 37 37 34 22 9 4 7 11 8 2 2 6 3 4 3 5 10 3 5 0 1 3 3 3 5 6 4 2 4 5 4 3 4 3 3 5 3 8
16 19 21 23 26 30 32 34 35 38 39 30 11 1 2 13 10 4 3 2 3 4 8 11 12 4 2 1 5 3 1 8 7 5 4 5 4 1 3 1 2 3 4 3 4 1 3
17 19 22 24 27 30 33 36 37 38 38 23 2 1 5 23 8 2 1 2 2 6 7 5 4 4 4 9 9 8 4 8 9 9 6 3 7 1 2 2 2 4 2 3 2 4 4
16 19 21 23 26 29 33 37 41 42 39 16 1 1 8 22 3 1 2 2 2 6 9 8 4 6 4 5 4 4 6 4 12 12 7 7 3 3 3 5 6 4 4 5 3 4 4
16 18 19 22 26 28 33 36 37 41 40 6 3 1 9 9 3 3 2 4 9 7 10 5 2 4 4 7 5 4 4 2 11 10 7 4 5 6 14 12 1 3 6 9 6 4 4
15 17 20 21 24 28 32 34 39 42 32 4 3 3 5 6 4 4 4 2 6 10 8 8 8 7 7 5 6 4 5 6 15 10 7 6 3 6 7 3 2 3 1 3 4 3 12
15 17 18 20 23 25 28 31 37 42 31 2 2 2 4 5 3 3 5 5 6 5 4 4 6 3 10 4 3 6 9 4 18 12 10 7 7 13 15 16 10 18 18 15 12 10 15
13 14 16 18 21 21 25 28 32 38 29 2 5 3 2 4 6 5 3 6 7 9 5 7 1 9 7 5 11 2 3 13 11 8 4 5 8 11 17 20 20 23 23 19 20 20 18
12 13 14 17 18 20 22 26 27 32 21 5 3 3 2 1 3 5 5 5 5 6 3 4 5 11 10 6 7 12 14 13 10 8 4 9 5 12 16 20 22 28 24 26 28 27 27
11 13 15 15 15 18 20 21 23 22 17 5 3 0 2 2 4 4 3 5 5 8 3 5 7 12 11 7 9 15 18 21 20 17 16 10 5 6 6 9 15 16 9 16 21 21 13
11 13 14 13 15 15 17 18 18 14 12 2 0 2 3 2 3 4 7 5 6 7 10 14 14 6 5 9 18 17 19 21 19 19 15 11 9 7 7 10 7 6 17 7 7 8 7
10 11 12 13 14 14 15 14 15 13 6 2 0 2 2 3 5 5 5 9 10 8 11 12 14 8 8 14 11 9 3 3 2 4 8 14 9 4 5 8 19 21 5 1 5 2 5
11 12 13 13 14 14 15 15 14 14 11 0 2 2 1 3 2 6 9 7 9 7 7 8 11 10 6 6 3 4 4 5 3 6 3 8 10 6 13 16 15 6 5 2 3 10 3
11 12 12 13 13 14 15 15 14 13 13 4 3 7 2 4 6 5 7 11 6 6 8 11 5 6 4 3 6 7 11 8 6 6 8 10 8 13 15 17 16 21 17 9 14 10 16
11 12 12 14 13 14 15 15 14 17 15 4 3 8 3 3 9 7 7 12 8 10 10 7 6 4 3 4 5 8 9 10 13 16 15 15 9 13 14 18 17 7 4 9 14 25 25
13 13 14 13 16 16 17 15 15 17 12 6 2 2 5 4 8 14 20 19 20 22 13 7 9 11 4 5 4 3 8 11 19 18 16 15 14 12 12 15 21 25 26 30 30 28 26
Wind_Direction
53 44 39 35 29 23 15 10 8 5 2 359 355 352 349 346 342 338 334 327 319 310 303 297 299 314 296 240 253 152 161 155 143 156 118 84 50 333 300 287 282 248 278 277 277 283 278
46 44 40 34 22 16 14 9 4 0 358 356 353 350 346 343 340 336 333 325 316 303 293 284 279 306 241 253 89 156 153 156 173 162 141 159 47 330 281 261 251 319 284 288 288 277 267
53 44 32 21 18 13 8 7 4 359 357 354 350 347 345 341 338 335 332 324 315 300 282 265 240 207 235 253 151 156 167 179 161 166 164 150 142 246 329 267 282 284 295 297 260 246 285
44 34 25 19 14 13 9 4 1 358 355 352 349 346 343 340 336 333 331 327 319 303 255 204 188 195 251 115 158 172 175 148 156 137 114 141 164 271 241 307 260 269 264 319 217 289 254
37 30 24 21 17 14 9 4 359 355 352 349 346 343 340 337 334 331 329 325 325 59 138 153 159 224 259 140 201 198 191 188 153 143 149 135 215 270 226 271 269 221 301 307 313 209 291
36 31 26 21 18 11 9 3 358 354 350 347 344 340 336 334 332 329 326 312 167 119 114 180 182 234 205 224 154 141 168 160 156 145 169 204 228 255 231 229 289 280 297 290 290 303 289
40 33 28 20 16 10 6 0 356 351 346 342 340 337 332 329 329 327 330 277 242 217 210 237 275 271 164 112 144 148 155 157 152 210 234 194 252 247 284 248 281 282 278 285 291 303 300
38 32 25 18 13 8 3 358 354 350 344 341 338 333 329 325 326 323 285 13 58 350 298 236 261 266 246 216 182 172 169 194 196 229 174 214 248 283 267 246 251 260 280 288 297 224 306
38 30 23 17 12 7 3 358 353 350 344 340 335 331 326 320 321 321 12 54 6 277 257 282 198 212 231 195 244 193 182 181 224 233 224 238 334 111 196 248 262 264 265 291 292 321 287
36 29 21 16 11 7 2 357 353 348 344 341 337 332 329 320 276 343 73 349 324 272 282 252 142 108 126 173 203 85 188 243 207 259 239 256 279 231 230 247 232 287 302 271 296 324 317
35 28 21 15 12 7 1 357 354 349 346 342 337 335 342 352 344 56 343 331 320 250 315 63 83 42 130 232 119 144 182 204 253 231 210 280 215 222 245 243 185 264 270 286 293 291 309
34 28 21 15 11 6 2 358 354 351 348 344 343 339 346 34 26 0 322 308 236 196 245 36 88 357 292 185 165 125 194 234 314 272 236 261 286 246 251 234 215 312 291 259 249 258 246
35 28 22 16 11 6 3 359 354 352 349 344 341 335 15 347 338 324 317 258 202 220 9 8 354 350 324 270 216 198 203 219 248 282 265 268 217 233 216 246 190 225 267 284 248 226 295
35 27 22 16 10 6 3 0 354 350 350 344 343 337 356 32 321 312 279 231 222 10 341 353 322 304 245 3 357 279 255 295 69 280 292 296 283 186 176 251 326 203 273 274 286 283 308
35 29 22 16 11 7 3 360 356 351 348 347 335 323 8 343 339 311 283 242 0 7 328 326 318 316 357 55 344 317 4 4 17 355 297 309 258 222 215 308 277 135 217 8 289 245 265
34 27 22 16 11 8 3 359 356 354 348 349 349 341 17 341 329 270 278 87 42 22 325 314 300 14 325 349 338 337 307 15 343 354 330 341 290 359 12 215 172 258 132 247 212 277 266
30 24 22 16 12 9 6 1 357 354 349 346 11 186 354 342 269 49 88 48 9 4 360 357 331 301 320 351 314 292 359 51 359 340 353 358 259 272 280 224 269 183 217 214 283 254 276
30 24 19 17 13 11 8 2 358 356 353 27 346 44 350 331 42 34 45 7 5 354 9 357 22 7 341 341 302 279 9 72 10 2 1 342 299 273 272 289 276 260 263 240 245 218 242
27 18 21 19 17 12 9 3 360 359 3 324 36 338 342 350 50 24 1 20 31 9 18 10 18 20 360 320 306 344 335 141 21 2 359 337 281 303 285 141 153 231 184 269 312 300 262
24 21 18 17 16 13 9 5 4 358 1 11 355 13 24 46 57 27 9 9 357 24 48 18 23 37 353 332 327 310 315 330 334 318 307 233 239 250 262 279 300 280 277 282 282 272 279
25 23 13 19 16 13 11 8 9 359 360 22 14 55 32 2 31 27 4 2 1 6 6 8 131 36 4 302 311 281 319 325 317 305 349 6 274 282 274 275 273 268 271 267 255 255 255
18 16 16 15 8 15 17 12 13 8 3 60 34 358 8 27 325 351 8 33 357 345 299 2 345 336 320 270 288 297 304 301 274 298 321 346 281 311 285 272 268 271 269 263 256 256 255
10 13 11 10 12 15 14 15 19 25 24 44 24 319 274 30 8 343 17 359 342 339 264 292 319 318 303 300 301 288 277 269 258 266 281 287 282 301 268 353 318 286 277 265 257 251 271
9 8 1 360 6 9 13 16 14 27 44 94 345 270 330 12 355 356 305 302 313 315 281 296 306 285 296 316 303 283 268 261 262 260 244 245 248 257 287 308 254 3 324 332 79 75 48
359 356 352 357 2 9 2 0 1 1 26 56 259 315 16 312 314 317 308 301 307 299 281 279 287 276 305 310 309 320 316 221 119 238 231 220 223 267 270 289 294 292 315 46 354 184 17
354 346 348 355 352 350 350 356 352 348 346 15 234 203 160 283 230 308 308 299 308 317 296 271 278 294 300 298 293 282 309 324 283 329 60 163 216 273 291 286 274 287 134 325 310 266 18
343 347 345 338 343 347 338 342 338 331 321 327 259 211 206 251 266 210 267 292 295 274 283 300 306 302 298 259 267 285 285 293 271 254 268 284 281 270 272 269 266 272 286 323 269 274 332
334 332 336 331 332 331 333 336 324 330 330 346 276 199 204 264 292 248 260 259 261 270 276 296 296 199 243 245 265 285 277 277 275 272 282 277 278 274 276 269 273 286 272 299 316 315 315
327 328 330 330 327 330 330 328 324 333 335 355 276 195 224 242 272 280 261 269 259 262 272 260 265 264 252 265 249 266 261 273 277 278 269 264 247 258 259 263 288 296 298 294 296 297 295